| time (UTC) | temp C | wind direction | speed KPH | gust KPH | rain 1hr cm | rain 24hr cm | rain mn cm | humidity % | barometer mb |
| 20260906090831 | 21 | 174 | 0.0 | 0.0 | 0.00 | 0.00 | 0.00 | 97 | 1021.3 |
| 20260906090330 | 21 | 218 | 0.0 | 0.0 | 0.00 | 0.00 | 0.00 | 97 | 1021.3 |
| 20260906085824 | 21 | 193 | 0.0 | 1.6 | 0.00 | 0.00 | 0.00 | 97 | 1021.3 |
| 20260906085323 | 21 | 210 | 0.0 | 0.0 | 0.00 | 0.00 | 0.00 | 97 | 1021.4 |
| 20260906084818 | 21 | 189 | 0.0 | 1.6 | 0.00 | 0.00 | 0.00 | 97 | 1021.4 |
| 20260906084318 | 21 | 207 | 0.0 | 0.0 | 0.00 | 0.00 | 0.00 | 97 | 1021.5 |
| 20260906083807 | 21 | 175 | 0.0 | 0.0 | 0.00 | 0.00 | 0.00 | 97 | 1021.4 |
| 20260906083303 | 21 | 107 | 1.6 | 1.6 | 0.00 | 0.00 | 0.00 | 97 | 1021.4 |
| 20260906082757 | 21 | 193 | 0.0 | 1.6 | 0.00 | 0.00 | 0.00 | 97 | 1021.4 |
| 20260906082252 | 21 | 222 | 0.0 | 0.0 | 0.00 | 0.00 | 0.00 | 97 | 1021.3 |
| 20260906081748 | 21 | 217 | 0.0 | 0.0 | 0.00 | 0.00 | 0.00 | 97 | 1021.4 |
| 20260906081244 | 21 | 164 | 1.6 | 1.6 | 0.00 | 0.00 | 0.00 | 98 | 1021.6 |
| 20260906080740 | 21 | 210 | 0.0 | 0.0 | 0.00 | 0.00 | 0.00 | 98 | 1021.4 |
| 20260906080236 | 21 | 197 | 0.0 | 0.0 | 0.00 | 0.00 | 0.00 | 98 | 1021.3 |
| 20260906075730 | 21 | 222 | 0.0 | 0.0 | 0.00 | 0.00 | 0.00 | 98 | 1021.5 |
| 20260906075229 | 21 | 181 | 0.0 | 0.0 | 0.00 | 0.00 | 0.00 | 98 | 1021.7 |
| 20260906074725 | 21 | 97 | 0.0 | 0.0 | 0.00 | 0.00 | 0.00 | 97 | 1021.3 |
| 20260906074224 | 21 | 97 | 0.0 | 0.0 | 0.00 | 0.00 | 0.00 | 97 | 1021.7 |
| 20260906073724 | 21 | 213 | 0.0 | 0.0 | 0.00 | 0.00 | 0.00 | 97 | 1021.4 |
| 20260906073219 | 22 | 229 | 0.0 | 0.0 | 0.00 | 0.00 | 0.00 | 97 | 1021.6 |
| 20260906072715 | 22 | 97 | 0.0 | 1.6 | 0.00 | 0.00 | 0.00 | 97 | 1021.6 |
| 20260906072211 | 22 | 224 | 0.0 | 0.0 | 0.00 | 0.00 | 0.00 | 96 | 1021.8 |
| 20260906071706 | 22 | 185 | 0.0 | 0.0 | 0.00 | 0.00 | 0.00 | 96 | 1021.7 |
| 20260906071201 | 22 | 341 | 0.0 | 0.0 | 0.00 | 0.00 | 0.00 | 96 | 1021.8 |
| 20260906070658 | 22 | 232 | 0.0 | 0.0 | 0.00 | 0.00 | 0.00 | 96 | 1021.5 |
| 20260906070153 | 22 | 222 | 0.0 | 0.0 | 0.00 | 0.00 | 0.00 | 96 | 1021.9 |
| 20260906065652 | 22 | 200 | 0.0 | 0.0 | 0.00 | 0.00 | 0.00 | 96 | 1021.9 |
| 20260906065148 | 22 | 182 | 0.0 | 0.0 | 0.00 | 0.00 | 0.00 | 96 | 1021.9 |
| 20260906064643 | 22 | 215 | 0.0 | 0.0 | 0.00 | 0.00 | 0.00 | 95 | 1021.6 |
| 20260906064139 | 22 | 220 | 0.0 | 0.0 | 0.00 | 0.00 | 0.00 | 95 | 1021.8 |
| 20260906063639 | 22 | 192 | 0.0 | 0.0 | 0.00 | 0.00 | 0.00 | 95 | 1022.0 |
| 20260906063135 | 22 | 224 | 0.0 | 0.0 | 0.00 | 0.00 | 0.00 | 95 | 1021.7 |
| 20260906062630 | 22 | 221 | 0.0 | 0.0 | 0.00 | 0.00 | 0.00 | 95 | 1022.0 |
| 20260906062129 | 22 | 223 | 0.0 | 0.0 | 0.00 | 0.00 | 0.00 | 95 | 1021.9 |
| 20260906061625 | 22 | 231 | 0.0 | 0.0 | 0.00 | 0.00 | 0.00 | 95 | 1022.0 |
| 20260906061125 | 22 | 226 | 0.0 | 0.0 | 0.00 | 0.00 | 0.00 | 95 | 1021.9 |
| 20260906060622 | 22 | 215 | 0.0 | 0.0 | 0.00 | 0.00 | 0.00 | 94 | 1021.7 |
| 20260906060119 | 22 | 216 | 0.0 | 0.0 | 0.00 | 0.00 | 0.00 | 94 | 1021.8 |
| 20260906055614 | 22 | 225 | 0.0 | 0.0 | 0.00 | 0.00 | 0.00 | 94 | 1021.7 |
| 20260906055109 | 22 | 143 | 0.0 | 0.0 | 0.00 | 0.00 | 0.00 | 94 | 1021.8 |
| 20260906054604 | 22 | 235 | 0.0 | 0.0 | 0.00 | 0.00 | 0.00 | 94 | 1021.6 |
| 20260906054059 | 23 | 221 | 0.0 | 0.0 | 0.00 | 0.00 | 0.00 | 93 | 1021.5 |
| 20260906053556 | 23 | 234 | 0.0 | 0.0 | 0.00 | 0.00 | 0.00 | 93 | 1021.4 |
| 20260906053051 | 23 | 215 | 0.0 | 0.0 | 0.00 | 0.00 | 0.00 | 93 | 1021.6 |
| 20260906052546 | 23 | 60 | 0.0 | 1.6 | 0.00 | 0.00 | 0.00 | 93 | 1021.5 |
| 20260906052043 | 23 | 136 | 0.0 | 1.6 | 0.00 | 0.00 | 0.00 | 93 | 1021.5 |
| 20260906051539 | 23 | 58 | 1.6 | 3.2 | 0.00 | 0.00 | 0.00 | 93 | 1021.6 |
| 20260906051034 | 23 | 106 | 1.6 | 1.6 | 0.00 | 0.00 | 0.00 | 93 | 1021.3 |
| 20260906050529 | 23 | 328 | 0.0 | 1.6 | 0.00 | 0.00 | 0.00 | 93 | 1021.5 |
| 20260906050024 | 23 | 272 | 0.0 | 0.0 | 0.00 | 0.00 | 0.00 | 93 | 1021.4 |
| 20260906045522 | 23 | 199 | 0.0 | 0.0 | 0.00 | 0.00 | 0.00 | 93 | 1021.4 |
| 20260906045018 | 23 | 120 | 0.0 | 1.6 | 0.00 | 0.00 | 0.00 | 93 | 1021.4 |
| 20260906044513 | 23 | 283 | 0.0 | 0.0 | 0.00 | 0.00 | 0.00 | 93 | 1021.5 |
| 20260906044009 | 23 | 164 | 0.0 | 1.6 | 0.00 | 0.00 | 0.00 | 92 | 1021.4 |
| 20260906043504 | 23 | 66 | 1.6 | 1.6 | 0.00 | 0.00 | 0.00 | 92 | 1021.4 |
| 20260906042955 | 23 | 108 | 0.0 | 0.0 | 0.00 | 0.00 | 0.00 | 92 | 1021.6 |
| 20260906042453 | 23 | 344 | 0.0 | 1.6 | 0.00 | 0.00 | 0.00 | 92 | 1021.4 |
| 20260906041947 | 23 | 357 | 0.0 | 1.6 | 0.00 | 0.00 | 0.00 | 92 | 1021.4 |
| 20260906041444 | 23 | 246 | 0.0 | 0.0 | 0.00 | 0.00 | 0.00 | 92 | 1021.3 |
| 20260906040943 | 23 | 238 | 0.0 | 0.0 | 0.00 | 0.00 | 0.00 | 92 | 1021.2 |
| 20260906040438 | 23 | 243 | 0.0 | 0.0 | 0.00 | 0.00 | 0.00 | 92 | 1021.1 |
| 20260906035934 | 23 | 237 | 0.0 | 0.0 | 0.00 | 0.00 | 0.00 | 92 | 1021.0 |
| 20260906035429 | 23 | 240 | 0.0 | 0.0 | 0.00 | 0.00 | 0.00 | 92 | 1021.2 |
| 20260906034925 | 23 | 260 | 0.0 | 0.0 | 0.00 | 0.00 | 0.00 | 92 | 1021.2 |
| 20260906034425 | 23 | 95 | 1.6 | 1.6 | 0.00 | 0.00 | 0.00 | 92 | 1021.3 |
| 20260906033921 | 23 | 62 | 0.0 | 0.0 | 0.00 | 0.00 | 0.00 | 92 | 1021.1 |
| 20260906033420 | 23 | 79 | 0.0 | 1.6 | 0.00 | 0.00 | 0.00 | 92 | 1020.7 |
| 20260906032916 | 23 | 216 | 0.0 | 0.0 | 0.00 | 0.00 | 0.00 | 92 | 1021.0 |
| 20260906032413 | 23 | 342 | 0.0 | 0.0 | 0.00 | 0.00 | 0.00 | 92 | 1020.9 |
| 20260906031907 | 23 | 125 | 0.0 | 0.0 | 0.00 | 0.00 | 0.00 | 92 | 1020.9 |
| 20260906031402 | 23 | 124 | 0.0 | 1.6 | 0.00 | 0.00 | 0.00 | 92 | 1020.9 |
| 20260906030857 | 23 | 178 | 0.0 | 1.6 | 0.00 | 0.00 | 0.00 | 92 | 1020.9 |
| 20260906030352 | 23 | 74 | 0.0 | 1.6 | 0.00 | 0.00 | 0.00 | 92 | 1021.1 |
| 20260906025846 | 23 | 76 | 3.2 | 4.8 | 0.00 | 0.00 | 0.00 | 92 | 1021.1 |
| 20260906025340 | 24 | 162 | 1.6 | 3.2 | 0.00 | 0.00 | 0.00 | 92 | 1021.0 |
| 20260906024839 | 24 | 45 | 1.6 | 3.2 | 0.00 | 0.00 | 0.00 | 92 | 1020.8 |
| 20260906024339 | 24 | 222 | 0.0 | 0.0 | 0.00 | 0.00 | 0.00 | 92 | 1020.8 |
| 20260906023834 | 24 | 175 | 0.0 | 0.0 | 0.00 | 0.00 | 0.00 | 92 | 1020.5 |
| 20260906023330 | 24 | 162 | 0.0 | 0.0 | 0.00 | 0.00 | 0.00 | 92 | 1020.6 |
| 20260906022825 | 24 | 243 | 0.0 | 0.0 | 0.00 | 0.00 | 0.00 | 92 | 1020.6 |
| 20260906022320 | 24 | 87 | 1.6 | 3.2 | 0.00 | 0.00 | 0.00 | 92 | 1020.2 |
| 20260906021816 | 25 | 80 | 0.0 | 1.6 | 0.00 | 0.00 | 0.00 | 92 | 1020.7 |
| 20260906021315 | 25 | 219 | 0.0 | 0.0 | 0.00 | 0.00 | 0.00 | 91 | 1020.3 |
| 20260906020810 | 25 | 94 | 1.6 | 1.6 | 0.00 | 0.00 | 0.00 | 91 | 1020.3 |
| 20260906020309 | 25 | 219 | 0.0 | 0.0 | 0.00 | 0.00 | 0.00 | 91 | 1020.0 |
| 20260906015804 | 25 | 228 | 0.0 | 0.0 | 0.00 | 0.00 | 0.00 | 91 | 1020.3 |
| 20260906015305 | 25 | 235 | 0.0 | 0.0 | 0.00 | 0.00 | 0.00 | 91 | 1019.9 |
| 20260906014757 | 25 | 222 | 0.0 | 0.0 | 0.00 | 0.00 | 0.00 | 91 | 1019.9 |
| 20260906014253 | 25 | 232 | 0.0 | 0.0 | 0.00 | 0.00 | 0.00 | 90 | 1019.9 |
| 20260906013749 | 25 | 227 | 0.0 | 0.0 | 0.00 | 0.00 | 0.00 | 90 | 1019.5 |
| 20260906013249 | 25 | 218 | 0.0 | 0.0 | 0.00 | 0.00 | 0.00 | 90 | 1019.8 |
| 20260906012744 | 25 | 266 | 0.0 | 0.0 | 0.00 | 0.00 | 0.00 | 90 | 1019.9 |
| 20260906012239 | 25 | 279 | 0.0 | 0.0 | 0.00 | 0.00 | 0.00 | 89 | 1019.6 |
| 20260906011735 | 25 | 168 | 0.0 | 0.0 | 0.00 | 0.00 | 0.00 | 89 | 1019.8 |
| 20260906011235 | 25 | 224 | 0.0 | 0.0 | 0.00 | 0.00 | 0.00 | 89 | 1019.6 |
| 20260906010730 | 25 | 205 | 0.0 | 0.0 | 0.00 | 0.00 | 0.00 | 88 | 1019.5 |
| 20260906010227 | 25 | 224 | 0.0 | 0.0 | 0.00 | 0.00 | 0.00 | 88 | 1019.5 |
| 20260906005721 | 25 | 235 | 0.0 | 0.0 | 0.00 | 0.00 | 0.00 | 88 | 1019.6 |
| 20260906005220 | 25 | 231 | 0.0 | 0.0 | 0.00 | 0.00 | 0.00 | 88 | 1019.5 |
| 20260906004719 | 25 | 318 | 0.0 | 0.0 | 0.00 | 0.00 | 0.00 | 88 | 1019.8 |
| 20260906004214 | 26 | 237 | 0.0 | 0.0 | 0.00 | 0.00 | 0.00 | 87 | 1019.6 |
| 20260906003709 | 26 | 232 | 0.0 | 0.0 | 0.00 | 0.00 | 0.00 | 87 | 1019.8 |
| 20260906003205 | 26 | 236 | 0.0 | 0.0 | 0.00 | 0.00 | 0.00 | 87 | 1019.5 |
| 20260906002659 | 26 | 232 | 0.0 | 0.0 | 0.00 | 0.00 | 0.00 | 87 | 1019.1 |
| 20260906002155 | 26 | 243 | 0.0 | 0.0 | 0.00 | 0.00 | 0.00 | 86 | 1019.4 |
| 20260906001650 | 26 | 207 | 0.0 | 0.0 | 0.00 | 0.00 | 0.00 | 86 | 1019.5 |
| 20260906001149 | 26 | 236 | 0.0 | 0.0 | 0.00 | 0.00 | 0.00 | 86 | 1019.5 |
| 20260906000645 | 26 | 215 | 0.0 | 0.0 | 0.00 | 0.00 | 0.00 | 85 | 1019.5 |
| 20260906000140 | 26 | 171 | 0.0 | 0.0 | 0.00 | 0.00 | 0.00 | 85 | 1019.4 |
| 20260905235639 | 26 | 133 | 1.6 | 1.6 | 0.00 | 0.00 | 0.00 | 85 | 1019.4 |
| 20260905235134 | 27 | 68 | 3.2 | 3.2 | 0.00 | 0.00 | 0.00 | 85 | 1019.4 |
| 20260905234629 | 27 | 236 | 0.0 | 0.0 | 0.00 | 0.00 | 0.00 | 85 | 1019.3 |
| 20260905234126 | 27 | 242 | 0.0 | 0.0 | 0.00 | 0.00 | 0.00 | 84 | 1019.3 |
| 20260905233626 | 27 | 197 | 0.0 | 0.0 | 0.00 | 0.00 | 0.00 | 84 | 1019.2 |
| 20260905233120 | 27 | 298 | 0.0 | 0.0 | 0.00 | 0.00 | 0.00 | 83 | 1019.1 |
| 20260905232615 | 27 | 222 | 0.0 | 0.0 | 0.00 | 0.00 | 0.00 | 83 | 1019.1 |
| 20260905232111 | 27 | 66 | 4.8 | 9.7 | 0.00 | 0.00 | 0.00 | 83 | 1019.1 |
| 20260905231606 | 28 | 81 | 1.6 | 1.6 | 0.00 | 0.00 | 0.00 | 82 | 1019.3 |
| 20260905231102 | 28 | 82 | 1.6 | 4.8 | 0.00 | 0.00 | 0.00 | 82 | 1019.0 |
| 20260905230602 | 28 | 186 | 0.0 | 1.6 | 0.00 | 0.00 | 0.00 | 81 | 1019.2 |
| 20260905225555 | 29 | 134 | 0.0 | 0.0 | 0.00 | 0.00 | 0.00 | 81 | 1019.2 |
| 20260905225050 | 30 | 242 | 0.0 | 1.6 | 0.00 | 0.00 | 0.00 | 81 | 1019.0 |
| 20260905224549 | 30 | 305 | 0.0 | 1.6 | 0.00 | 0.00 | 0.00 | 81 | 1019.0 |
| 20260905224049 | 29 | 65 | 3.2 | 3.2 | 0.00 | 0.00 | 0.00 | 82 | 1018.9 |
| 20260905223547 | 29 | 50 | 4.8 | 8.0 | 0.00 | 0.00 | 0.00 | 81 | 1018.9 |
| 20260905223042 | 29 | 68 | 3.2 | 4.8 | 0.00 | 0.00 | 0.00 | 81 | 1018.9 |
| 20260905222543 | 30 | 7 | 3.2 | 4.8 | 0.00 | 0.00 | 0.00 | 81 | 1018.8 |
| 20260905222038 | 30 | 40 | 6.4 | 9.7 | 0.00 | 0.00 | 0.00 | 81 | 1018.7 |
| 20260905221534 | 30 | 60 | 4.8 | 8.0 | 0.00 | 0.00 | 0.00 | 81 | 1018.6 |
| 20260905221030 | 30 | 27 | 1.6 | 3.2 | 0.00 | 0.00 | 0.00 | 81 | 1018.5 |
| 20260905220526 | 30 | 35 | 6.4 | 9.7 | 0.00 | 0.00 | 0.00 | 80 | 1018.7 |
| 20260905220021 | 30 | 92 | 3.2 | 3.2 | 0.00 | 0.00 | 0.00 | 80 | 1018.7 |
| 20260905215515 | 30 | 98 | 4.8 | 8.0 | 0.00 | 0.00 | 0.00 | 79 | 1018.6 |
| 20260905215012 | 31 | 58 | 1.6 | 1.6 | 0.00 | 0.00 | 0.00 | 79 | 1018.4 |
| 20260905214508 | 31 | 39 | 1.6 | 3.2 | 0.00 | 0.00 | 0.00 | 78 | 1018.8 |
| 20260905214008 | 31 | 309 | 1.6 | 1.6 | 0.00 | 0.00 | 0.00 | 77 | 1018.8 |
| 20260905213503 | 31 | 72 | 1.6 | 3.2 | 0.00 | 0.00 | 0.00 | 76 | 1018.7 |
| 20260905213004 | 31 | 23 | 8.0 | 9.7 | 0.00 | 0.00 | 0.00 | 76 | 1018.7 |
| 20260905212459 | 31 | 93 | 6.4 | 9.7 | 0.00 | 0.00 | 0.00 | 76 | 1018.8 |
| 20260905211958 | 31 | 35 | 1.6 | 3.2 | 0.00 | 0.00 | 0.00 | 76 | 1018.9 |
| 20260905211454 | 31 | 73 | 1.6 | 1.6 | 0.00 | 0.00 | 0.00 | 77 | 1019.1 |
| 20260905210949 | 31 | 45 | 1.6 | 1.6 | 0.00 | 0.00 | 0.00 | 77 | 1018.8 |
| 20260905210444 | 31 | 256 | 0.0 | 0.0 | 0.00 | 0.00 | 0.00 | 78 | 1018.9 |
| 20260905205944 | 31 | 79 | 0.0 | 0.0 | 0.00 | 0.00 | 0.00 | 78 | 1019.0 |
| 20260905205439 | 32 | 50 | 1.6 | 1.6 | 0.00 | 0.00 | 0.00 | 75 | 1019.0 |
| 20260905204937 | 31 | 287 | 1.6 | 1.6 | 0.00 | 0.00 | 0.00 | 77 | 1018.8 |
| 20260905204433 | 31 | 196 | 0.0 | 1.6 | 0.00 | 0.00 | 0.00 | 76 | 1018.9 |
| 20260905203932 | 32 | 289 | 0.0 | 1.6 | 0.00 | 0.00 | 0.00 | 76 | 1019.0 |
| 20260905203428 | 32 | 21 | 4.8 | 4.8 | 0.00 | 0.00 | 0.00 | 72 | 1018.8 |
| 20260905202923 | 32 | 77 | 1.6 | 3.2 | 0.00 | 0.00 | 0.00 | 75 | 1019.2 |
| 20260905202419 | 31 | 54 | 8.0 | 9.7 | 0.00 | 0.00 | 0.00 | 75 | 1019.2 |
| 20260905201914 | 32 | 88 | 4.8 | 8.0 | 0.00 | 0.00 | 0.00 | 73 | 1019.1 |
| 20260905201409 | 32 | 99 | 1.6 | 1.6 | 0.00 | 0.00 | 0.00 | 75 | 1019.1 |
| 20260905200904 | 31 | 0 | 1.6 | 3.2 | 0.00 | 0.00 | 0.00 | 74 | 1019.0 |
| 20260905200400 | 31 | 202 | 4.8 | 8.0 | 0.00 | 0.00 | 0.00 | 75 | 1018.9 |
| 20260905195857 | 32 | 82 | 4.8 | 8.0 | 0.00 | 0.00 | 0.00 | 76 | 1019.0 |
| 20260905195353 | 31 | 136 | 1.6 | 3.2 | 0.00 | 0.00 | 0.00 | 76 | 1019.1 |
| 20260905194849 | 32 | 79 | 1.6 | 3.2 | 0.00 | 0.00 | 0.00 | 76 | 1019.1 |
| 20260905194348 | 31 | 21 | 1.6 | 3.2 | 0.00 | 0.00 | 0.00 | 78 | 1019.2 |
| 20260905193847 | 31 | 72 | 4.8 | 8.0 | 0.00 | 0.00 | 0.00 | 78 | 1019.1 |
| 20260905193342 | 31 | 27 | 4.8 | 9.7 | 0.00 | 0.00 | 0.00 | 79 | 1019.5 |
| 20260905192838 | 31 | 342 | 1.6 | 1.6 | 0.00 | 0.00 | 0.00 | 79 | 1019.8 |
| 20260905192334 | 31 | 34 | 4.8 | 4.8 | 0.00 | 0.00 | 0.00 | 79 | 1019.9 |
| 20260905191833 | 31 | 40 | 6.4 | 8.0 | 0.00 | 0.00 | 0.00 | 79 | 1019.6 |
| 20260905191332 | 31 | 73 | 1.6 | 1.6 | 0.00 | 0.00 | 0.00 | 78 | 1019.9 |
| 20260905190825 | 32 | 343 | 3.2 | 3.2 | 0.00 | 0.00 | 0.00 | 76 | 1019.8 |
| 20260905190324 | 31 | 23 | 0.0 | 1.6 | 0.00 | 0.00 | 0.00 | 78 | 1019.5 |
| 20260905185823 | 31 | 117 | 0.0 | 0.0 | 0.00 | 0.00 | 0.00 | 79 | 1019.9 |
| 20260905185319 | 31 | 42 | 4.8 | 4.8 | 0.00 | 0.00 | 0.00 | 77 | 1019.8 |
| 20260905184812 | 32 | 318 | 4.8 | 8.0 | 0.00 | 0.00 | 0.00 | 76 | 1019.8 |
| 20260905184311 | 32 | 243 | 0.0 | 0.0 | 0.00 | 0.00 | 0.00 | 75 | 1019.8 |
| 20260905183810 | 32 | 230 | 0.0 | 0.0 | 0.00 | 0.00 | 0.00 | 76 | 1020.2 |
| 20260905183306 | 32 | 35 | 1.6 | 3.2 | 0.00 | 0.00 | 0.00 | 77 | 1020.0 |
| 20260905182800 | 31 | 320 | 3.2 | 3.2 | 0.00 | 0.00 | 0.00 | 78 | 1020.1 |
| 20260905182300 | 31 | 51 | 8.0 | 9.7 | 0.00 | 0.00 | 0.00 | 77 | 1020.0 |
| 20260905181755 | 31 | 287 | 1.6 | 1.6 | 0.00 | 0.00 | 0.00 | 77 | 1019.9 |
| 20260905181255 | 31 | 173 | 1.6 | 1.6 | 0.00 | 0.00 | 0.00 | 79 | 1020.0 |
| 20260905180749 | 31 | 35 | 1.6 | 3.2 | 0.00 | 0.00 | 0.00 | 78 | 1020.2 |
| 20260905180244 | 31 | 343 | 0.0 | 1.6 | 0.00 | 0.00 | 0.00 | 79 | 1020.0 |
| 20260905175744 | 31 | 83 | 1.6 | 1.6 | 0.00 | 0.00 | 0.00 | 80 | 1020.0 |
| 20260905175239 | 31 | 241 | 0.0 | 0.0 | 0.00 | 0.00 | 0.00 | 80 | 1020.0 |
| 20260905174734 | 31 | 307 | 3.2 | 4.8 | 0.00 | 0.00 | 0.00 | 79 | 1019.8 |
| 20260905174230 | 30 | 354 | 3.2 | 3.2 | 0.00 | 0.00 | 0.00 | 80 | 1019.9 |
| 20260905173726 | 31 | 344 | 1.6 | 3.2 | 0.00 | 0.00 | 0.00 | 80 | 1019.6 |
| 20260905173221 | 31 | 91 | 1.6 | 4.8 | 0.00 | 0.00 | 0.00 | 79 | 1019.8 |
| 20260905172721 | 30 | 275 | 0.0 | 1.6 | 0.00 | 0.00 | 0.00 | 80 | 1019.8 |
| 20260905172215 | 30 | 77 | 4.8 | 4.8 | 0.00 | 0.00 | 0.00 | 81 | 1020.0 |
| 20260905171711 | 30 | 78 | 0.0 | 0.0 | 0.00 | 0.00 | 0.00 | 80 | 1020.1 |
| 20260905171207 | 30 | 264 | 0.0 | 1.6 | 0.00 | 0.00 | 0.00 | 81 | 1020.0 |
| 20260905170704 | 30 | 205 | 0.0 | 0.0 | 0.00 | 0.00 | 0.00 | 81 | 1020.0 |
| 20260905170203 | 30 | 316 | 0.0 | 1.6 | 0.00 | 0.00 | 0.00 | 81 | 1020.1 |
| 20260905165658 | 30 | 281 | 1.6 | 1.6 | 0.00 | 0.00 | 0.00 | 80 | 1020.3 |
| 20260905165153 | 30 | 64 | 0.0 | 1.6 | 0.00 | 0.00 | 0.00 | 79 | 1020.4 |
| 20260905164648 | 30 | 16 | 4.8 | 8.0 | 0.00 | 0.00 | 0.00 | 79 | 1020.4 |
| 20260905164148 | 30 | 356 | 0.0 | 1.6 | 0.00 | 0.00 | 0.00 | 79 | 1020.2 |
| 20260905163643 | 30 | 291 | 0.0 | 0.0 | 0.00 | 0.00 | 0.00 | 79 | 1020.3 |
| 20260905163140 | 30 | 350 | 0.0 | 0.0 | 0.00 | 0.00 | 0.00 | 79 | 1020.4 |
| 20260905162636 | 30 | 286 | 1.6 | 1.6 | 0.00 | 0.00 | 0.00 | 79 | 1020.4 |
| 20260905162135 | 30 | 118 | 0.0 | 1.6 | 0.00 | 0.00 | 0.00 | 79 | 1020.4 |
| 20260905161634 | 30 | 319 | 3.2 | 4.8 | 0.00 | 0.00 | 0.00 | 79 | 1020.4 |
| 20260905161132 | 29 | 5 | 4.8 | 4.8 | 0.00 | 0.00 | 0.00 | 79 | 1020.4 |
| 20260905160627 | 29 | 76 | 4.8 | 8.0 | 0.00 | 0.00 | 0.00 | 80 | 1020.1 |
| 20260905160120 | 29 | 28 | 1.6 | 3.2 | 0.00 | 0.00 | 0.00 | 81 | 1020.1 |
| 20260905155615 | 29 | 317 | 4.8 | 4.8 | 0.00 | 0.00 | 0.00 | 81 | 1020.2 |
| 20260905155114 | 29 | 96 | 0.0 | 1.6 | 0.00 | 0.00 | 0.00 | 82 | 1020.3 |
| 20260905154609 | 30 | 60 | 3.2 | 4.8 | 0.00 | 0.00 | 0.00 | 80 | 1020.1 |
| 20260905154104 | 30 | 118 | 0.0 | 0.0 | 0.00 | 0.00 | 0.00 | 82 | 1020.1 |
| 20260905153600 | 29 | 267 | 0.0 | 0.0 | 0.00 | 0.00 | 0.00 | 82 | 1020.1 |
| 20260905153100 | 29 | 292 | 3.2 | 3.2 | 0.00 | 0.00 | 0.00 | 83 | 1020.0 |
| 20260905152555 | 28 | 312 | 0.0 | 0.0 | 0.00 | 0.00 | 0.00 | 83 | 1019.8 |
| 20260905152050 | 28 | 31 | 6.4 | 9.7 | 0.00 | 0.00 | 0.00 | 84 | 1020.0 |
| 20260905151545 | 28 | 30 | 4.8 | 4.8 | 0.00 | 0.00 | 0.00 | 84 | 1019.8 |
| 20260905151040 | 28 | 63 | 4.8 | 8.0 | 0.00 | 0.00 | 0.00 | 84 | 1019.6 |
| 20260905150535 | 28 | 76 | 3.2 | 4.8 | 0.00 | 0.00 | 0.00 | 84 | 1019.5 |
| 20260905150033 | 28 | 71 | 1.6 | 4.8 | 0.00 | 0.00 | 0.00 | 85 | 1019.6 |
| 20260905145527 | 27 | 58 | 1.6 | 3.2 | 0.00 | 0.00 | 0.00 | 86 | 1019.5 |
| 20260905145021 | 27 | 0 | 0.0 | 1.6 | 0.00 | 0.00 | 0.00 | 86 | 1019.4 |
| 20260905144516 | 28 | 77 | 4.8 | 4.8 | 0.00 | 0.00 | 0.00 | 86 | 1019.4 |
| 20260905144015 | 27 | 7 | 4.8 | 8.0 | 0.00 | 0.00 | 0.00 | 87 | 1019.5 |
| 20260905143514 | 27 | 52 | 3.2 | 3.2 | 0.00 | 0.00 | 0.00 | 88 | 1019.6 |
| 20260905143010 | 28 | 41 | 4.8 | 8.0 | 0.00 | 0.00 | 0.00 | 88 | 1019.8 |
| 20260905142508 | 28 | 336 | 3.2 | 4.8 | 0.00 | 0.00 | 0.00 | 87 | 1019.5 |
| 20260905142004 | 28 | 6 | 1.6 | 1.6 | 0.00 | 0.00 | 0.00 | 88 | 1019.5 |
| 20260905141503 | 27 | 305 | 0.0 | 1.6 | 0.00 | 0.00 | 0.00 | 89 | 1019.3 |
| 20260905141000 | 27 | 98 | 1.6 | 1.6 | 0.00 | 0.00 | 0.00 | 89 | 1019.2 |
| 20260905140454 | 27 | 310 | 0.0 | 0.0 | 0.00 | 0.00 | 0.00 | 90 | 1019.1 |
| 20260905135953 | 27 | 292 | 1.6 | 3.2 | 0.00 | 0.00 | 0.00 | 90 | 1019.2 |
| 20260905135449 | 27 | 5 | 3.2 | 3.2 | 0.00 | 0.00 | 0.00 | 90 | 1019.1 |
| 20260905134944 | 27 | 279 | 1.6 | 1.6 | 0.00 | 0.00 | 0.00 | 90 | 1019.1 |
| 20260905134443 | 27 | 352 | 1.6 | 1.6 | 0.00 | 0.00 | 0.00 | 91 | 1019.2 |
| 20260905133943 | 26 | 278 | 0.0 | 0.0 | 0.00 | 0.00 | 0.00 | 92 | 1019.1 |
| 20260905133437 | 26 | 343 | 0.0 | 1.6 | 0.00 | 0.00 | 0.00 | 93 | 1018.9 |
| 20260905132932 | 26 | 279 | 0.0 | 0.0 | 0.00 | 0.00 | 0.00 | 94 | 1018.8 |
| 20260905132427 | 25 | 317 | 0.0 | 0.0 | 0.00 | 0.00 | 0.00 | 94 | 1018.9 |
| 20260905131921 | 25 | 53 | 3.2 | 3.2 | 0.00 | 0.00 | 0.00 | 95 | 1018.8 |
| 20260905131417 | 25 | 266 | 0.0 | 0.0 | 0.00 | 0.00 | 0.00 | 96 | 1018.6 |
| 20260905130912 | 25 | 311 | 1.6 | 1.6 | 0.00 | 0.00 | 0.00 | 96 | 1018.6 |
| 20260905130411 | 25 | 306 | 0.0 | 0.0 | 0.00 | 0.00 | 0.00 | 97 | 1018.7 |
| 20260905125907 | 25 | 266 | 0.0 | 0.0 | 0.00 | 0.00 | 0.00 | 97 | 1018.5 |
| 20260905125407 | 25 | 23 | 3.2 | 3.2 | 0.00 | 0.00 | 0.00 | 97 | 1018.8 |
| 20260905124902 | 25 | 80 | 1.6 | 1.6 | 0.00 | 0.00 | 0.00 | 97 | 1018.6 |
| 20260905124359 | 25 | 35 | 1.6 | 1.6 | 0.00 | 0.00 | 0.00 | 97 | 1018.6 |
| 20260905123858 | 25 | 88 | 1.6 | 1.6 | 0.00 | 0.00 | 0.00 | 97 | 1018.4 |
| 20260905123355 | 25 | 335 | 0.0 | 1.6 | 0.00 | 0.00 | 0.00 | 97 | 1018.4 |
| 20260905122850 | 25 | 339 | 0.0 | 1.6 | 0.00 | 0.00 | 0.00 | 97 | 1018.6 |
| 20260905122349 | 25 | 261 | 0.0 | 0.0 | 0.00 | 0.00 | 0.00 | 98 | 1018.3 |
| 20260905121845 | 24 | 318 | 0.0 | 0.0 | 0.00 | 0.00 | 0.00 | 98 | 1018.4 |
| 20260905121341 | 24 | 283 | 0.0 | 0.0 | 0.00 | 0.00 | 0.00 | 98 | 1018.2 |
| 20260905120839 | 24 | 277 | 0.0 | 0.0 | 0.00 | 0.00 | 0.00 | 98 | 1018.4 |
| 20260905120334 | 23 | 307 | 0.0 | 0.0 | 0.00 | 0.00 | 0.00 | 98 | 1018.2 |
| 20260905115830 | 23 | 275 | 0.0 | 0.0 | 0.00 | 0.00 | 0.00 | 99 | 1018.0 |
| 20260905115329 | 23 | 262 | 0.0 | 0.0 | 0.00 | 0.00 | 0.00 | 99 | 1017.9 |
| 20260905114829 | 23 | 262 | 0.0 | 0.0 | 0.00 | 0.00 | 0.00 | 98 | 1017.9 |
| 20260905114328 | 23 | 262 | 0.0 | 0.0 | 0.00 | 0.00 | 0.00 | 98 | 1017.7 |
| 20260905113822 | 24 | 263 | 0.0 | 0.0 | 0.00 | 0.00 | 0.00 | 98 | 1017.8 |
| 20260905113318 | 24 | 266 | 0.0 | 0.0 | 0.00 | 0.00 | 0.00 | 98 | 1017.8 |
| 20260905112813 | 24 | 268 | 0.0 | 0.0 | 0.00 | 0.00 | 0.00 | 98 | 1017.9 |
| 20260905112308 | 24 | 264 | 0.0 | 0.0 | 0.00 | 0.00 | 0.00 | 98 | 1018.1 |
| 20260905111803 | 24 | 267 | 0.0 | 0.0 | 0.00 | 0.00 | 0.00 | 98 | 1017.8 |
| 20260905111257 | 24 | 264 | 0.0 | 0.0 | 0.00 | 0.00 | 0.00 | 98 | 1017.6 |
| 20260905110756 | 24 | 263 | 0.0 | 0.0 | 0.00 | 0.00 | 0.00 | 98 | 1017.6 |
| 20260905110250 | 24 | 246 | 0.0 | 0.0 | 0.00 | 0.00 | 0.00 | 98 | 1017.7 |
| 20260905105746 | 24 | 254 | 0.0 | 0.0 | 0.00 | 0.00 | 0.00 | 98 | 1017.4 |
| 20260905105245 | 24 | 262 | 0.0 | 0.0 | 0.00 | 0.00 | 0.00 | 98 | 1017.4 |
| 20260905104740 | 24 | 263 | 0.0 | 0.0 | 0.00 | 0.00 | 0.00 | 98 | 1017.5 |
| 20260905104236 | 24 | 241 | 0.0 | 0.0 | 0.00 | 0.00 | 0.00 | 98 | 1017.5 |
| 20260905103736 | 24 | 241 | 0.0 | 0.0 | 0.00 | 0.00 | 0.00 | 98 | 1017.5 |
| 20260905103232 | 24 | 241 | 0.0 | 0.0 | 0.00 | 0.00 | 0.00 | 98 | 1017.4 |
| 20260905102727 | 24 | 241 | 0.0 | 0.0 | 0.00 | 0.00 | 0.00 | 98 | 1017.4 |
| 20260905102224 | 24 | 241 | 0.0 | 0.0 | 0.00 | 0.00 | 0.00 | 98 | 1017.6 |
| 20260905101723 | 24 | 241 | 0.0 | 0.0 | 0.00 | 0.00 | 0.00 | 99 | 1017.5 |
| 20260905101221 | 24 | 241 | 0.0 | 0.0 | 0.00 | 0.00 | 0.00 | 98 | 1017.4 |
| 20260905100718 | 24 | 241 | 0.0 | 0.0 | 0.00 | 0.00 | 0.00 | 99 | 1017.4 |
| 20260905100212 | 24 | 241 | 0.0 | 0.0 | 0.00 | 0.00 | 0.00 | 99 | 1017.5 |
| 20260905095712 | 24 | 241 | 0.0 | 0.0 | 0.00 | 0.00 | 0.00 | 98 | 1017.8 |
| 20260905095206 | 24 | 241 | 0.0 | 0.0 | 0.00 | 0.00 | 0.00 | 98 | 1017.5 |
| 20260905094701 | 24 | 241 | 0.0 | 0.0 | 0.00 | 0.00 | 0.00 | 98 | 1017.7 |
| 20260905094201 | 24 | 241 | 0.0 | 0.0 | 0.00 | 0.00 | 0.00 | 98 | 1017.5 |
| 20260905093655 | 24 | 237 | 0.0 | 0.0 | 0.00 | 0.00 | 0.00 | 98 | 1017.6 |
| 20260905093152 | 24 | 236 | 0.0 | 0.0 | 0.00 | 0.00 | 0.00 | 98 | 1017.7 |
| 20260905092652 | 24 | 257 | 0.0 | 0.0 | 0.00 | 0.00 | 0.00 | 98 | 1017.7 |
| 20260905092148 | 24 | 257 | 0.0 | 0.0 | 0.00 | 0.00 | 0.00 | 98 | 1017.6 |
| 20260905091642 | 24 | 257 | 0.0 | 0.0 | 0.00 | 0.00 | 0.00 | 98 | 1017.9 |